AirNav   GEt a FREE Bose Revolve Bluetooth Speaker
 
 1491 users online  

F62 Hayfork Airport
Hayfork, California, USA

GOING TO HAYFORK?


FAA INFORMATION EFFECTIVE 06 DECEMBER 2018

Location

FAA Identifier: F62
Lat/Long: 40-32-49.2000N / 123-10-46.7000W
40-32.820000N / 123-10.778333W
40.5470000 / -123.1796389
(estimated)
Elevation: 2333.8 ft. / 711.3 m (surveyed)
Variation: 17E (1985)
From city: 1 mile S of HAYFORK, CA
Time zone: UTC -8 (UTC -7 during Daylight Saving Time)
Zip code: 96041

Airport Operations

Airport use: Open to the public
Activation date: 07/1970
Control tower: no
ARTCC: OAKLAND CENTER
FSS: RANCHO MURIETA FLIGHT SERVICE STATION
NOTAMs facility: RIU (NOTAM-D service available)
Attendance: UNATNDD
Wind indicator: lighted
Segmented circle: yes
Lights: ACTVT MIRL RWY 07/25 - CTAF. MIRL RWY 07/25 OTS INDEF
Beacon: white-green (lighted land airport)
DUSK TO DAWN. OTS INDEF

Airport Communications

CTAF/UNICOM: 122.8
WX AWOS-3 at O54 (17 nm NE): 120.850 (530-623-3810)

Airport Services

Parking: tiedowns
Airframe service: MINOR
Powerplant service: MINOR
Bottled oxygen: NONE
Bulk oxygen: NONE

Runway Information

Runway 7/25

Dimensions: 4100 x 60 ft. / 1250 x 18 m
Surface: asphalt, in fair condition
Weight bearing capacity: 
Single wheel: 12.5
Runway edge lights: medium intensity
Gradient: EAST
RUNWAY 7  RUNWAY 25
Latitude: 40-32.806962N40-32.831865N
Longitude: 123-11.220862W123-10.336328W
Elevation: 2315.6 ft.2333.8 ft.
Gradient: 0.4% UP0.4%
Traffic pattern: leftright
Runway heading: 070 magnetic, 087 true250 magnetic, 267 true
Markings: basic, in fair conditionbasic, in fair condition
Runway end identifier lights: nono
Touchdown point: yes, no lightsyes, no lights
Obstructions: 13 ft. tree, 330 ft. from runway, 65 ft. right of centerline, 10:1 slope to clear43 ft. tree, 850 ft. from runway, 15:1 slope to clear

Airport Ownership and Management from official FAA records

Ownership: Publicly-owned
Owner: COUNTY OF TRINITY
PO BOX 2490
WEAVERVILLE, CA 96093-0476
Phone 530-623-1365
Manager: RICK TIPPETT
PO BOX 2490
WEAVERVILLE, CA 96093-0476
Phone 530-623-1365
DIRECTOR OF TRANSPORTATION; OFFICE IN WEAVERVILLE.

Airport Operational Statistics

Aircraft based on the field: 4
Single engine airplanes: 4
    
Aircraft operations: avg 34/day *
96% transient general aviation
4% local general aviation
* for 12-month period ending 31 December 2016

Additional Remarks

HIGH TERRAIN ALL QUADRANTS.
NOISE ABATEMENT PROCEDURES IN EFFECT N, NE & S OF ARPT.
INTERMITTENTLY CLOSED WINTERS DUE TO SNOW. CTC COUNTY TRANSPORTATION OFFICE FOR INFO 530-623-1365.

Instrument Procedures

There are no published instrument procedures at F62.

Some nearby airports with instrument procedures:

KRDD - Redding Municipal Airport (40 nm E)
KFOT - Rohnerville Airport (43 nm W)
KEKA - Murray Field Airport (45 nm W)
KRBL - Red Bluff Municipal Airport (49 nm SE)
KACV - California Redwood Coast-Humboldt County Airport (49 nm NW)
 
Loc | Ops | Rwys | IFR | FBO | Links
Com | Nav | Svcs | Stats | Notes


 
Area around F62 (Hayfork Airport)
 
Road maps at: MapQuest Bing Google
 
Aerial photo
WARNING: Photo may not be current or correct
Aerial photo of F62 (Hayfork Airport)
Do you have a better or more recent aerial photo of Hayfork Airport that you would like to share? If so, please send us your photo.

 
Sectional chart

 
Airport distance calculator
Flying to Hayfork Airport? Find the distance to fly.

From to F62

Sunrise and sunset
Times for 11-Dec-2018
 Local
(UTC-8)
 Zulu
(UTC)
Morning civil twilight06:5614:56
Sunrise07:2715:27
Sunset16:4500:45
Evening civil twilight17:1601:16

Current date and time
Zulu (UTC)  11-Dec-2018 19:38:53
Local (UTC-8)  11-Dec-2018 11:38:53
 
METAR
KO86 
34nm NE 
111910Z AUTO 00000KT 10SM CLR 02/00 A3026 RMK AO1
KRDD 
40nm E 
111853Z 36009KT 10SM CLR 16/M01 A3017 RMK AO2 SLP215 T01561011
KFOT 
49nm W 
111915Z AUTO 13009KT 10SM OVC032 10/07 A3024 RMK AO1
KRBL 
49nm SE 
111854Z AUTO 36009KT 10SM CLR 14/01 A3018 RMK AO2 SLP220 T01390006
KACV 
49nm NW 
111853Z AUTO 11005KT 10SM OVC037 11/05 A3023 RMK AO2 SLP244 T01110050
TAF
KRDD 
40nm E 
111723Z 1118/1218 VRB04KT P6SM BKN200 FM120500 VRB04KT P6SM OVC050
KRBL 
49nm SE 
111723Z 1118/1218 VRB04KT P6SM BKN200 FM120500 18006KT P6SM OVC050
KACV 
49nm NW 
111732Z 1118/1218 VRB05KT P6SM BKN045 OVC060 FM112100 17006KT 5SM -RA BR SCT015 BKN025 OVC035 FM120600 04005KT 6SM -SHRA BKN025 FM121100 VRB04KT P6SM SCT025 FM121500 VRB05KT P6SM SKC
NOTAMs
Click for the latest NOTAMs
NOTAMs are issued by the DoD/FAA and will open in a separate window not controlled by AirNav.

 

 
 

Would you like to see your business listed on this page?

 If your business provides an interesting product or service to pilots, flight crews, aircraft, or users of the Hayfork Airport, you should consider listing it here.  To start the listing process, click on the button below
 
Add a business
 

Other Pages about Hayfork Airport

Update a link
 
Copyright © AirNav, LLC. All rights reserved. Privacy Policy  Contact